Regional Weather Roundup
Issued by NWS

Home | Current Version | Previous Version | Graphics & Text | Print | Product List | Glossary On
Versions: 1 2 3 4 5 6 7 8 9 10 11 12 13 14 15 16 17 18 19 20 21 22 23 24 25 26 27 28 29 30 31 32 33 34 35 36 37 38 39 40 41 42 43 44 45 46 47 48 49 50
000
ASUS43 KLSX 220007
RWRMO

WEATHER SUMMARY FOR MISSOURI
NATIONAL WEATHER SERVICE SPRINGFIELD MO
700 PM CDT TUE OCT 21 2014

NOTE: "FAIR" INDICATES FEW OR NO CLOUDS BELOW 12,000 FEET WITH NO
       SIGNIFICANT WEATHER AND/OR OBSTRUCTIONS TO VISIBILITY.
       CURRENT SKY AND/OR WEATHER CONDITIONS ARE NOT AVAILABLE FOR
       CHILLICOTHE AND FARMINGTON.

MOZ001>031-035>038-043-044-053-054-220100-
...NORTHERN AND WESTERN MISSOURI...

CITY           SKY/WX    TMP DP  RH WIND       PRES   REMARKS
KANSAS CTY INT CLEAR     65  43  44 E7        30.08R
6HR MIN TEMP:  65; 6HR MAX TEMP:  72;

KANSAS C DTWN  CLEAR     67  44  43 E6        30.07R
6HR MIN TEMP:  67; 6HR MAX TEMP:  76;

LEE`S SUMMIT   CLEAR     67  44  43 SE6       30.08S
6HR MIN TEMP:  67; 6HR MAX TEMP:  73;

ST JOSEPH      CLEAR     63  43  48 SE7       30.07R
6HR MIN TEMP:  63; 6HR MAX TEMP:  75;

CHILLICOTHE      N/A     64  46  52 VRB3      30.11S
6HR MIN TEMP:  64; 6HR MAX TEMP:  74;

KIRKSVILLE     CLEAR     56  45  66 E5        30.15R
6HR MIN TEMP:  56; 6HR MAX TEMP:  66;


$$
MOZ066>068-077>081-088>096-101>105-220100-
...SOUTHWEST MISSOURI...

CITY           SKY/WX    TMP DP  RH WIND       PRES   REMARKS
SPRINGFIELD    CLEAR     65  45  48 NE3       30.08R
6HR MIN TEMP:  65; 6HR MAX TEMP:  75;

JOPLIN         CLEAR     66  48  52 NE5       30.07R
6HR MIN TEMP:  66; 6HR MAX TEMP:  76;


$$
MOZ032>034-039>042-045>050-055>058-069>072-220100-
...CENTRAL MISSOURI...

CITY           SKY/WX    TMP DP  RH WIND       PRES   REMARKS
COLUMBIA       CLEAR     59  46  62 NE8       30.12R
6HR MIN TEMP:  59; 6HR MAX TEMP:  73;

JEFFERSON CITY CLEAR     66  44  45 NE7       30.10R
6HR MIN TEMP:  66; 6HR MAX TEMP:  74;

ROLLA          CLEAR     59  45  59 NE6       30.10R
6HR MIN TEMP:  58; 6HR MAX TEMP:  71;

SEDALIA        CLEAR     66  44  45 E5        30.10S
6HR MIN TEMP:  66; 6HR MAX TEMP:  75;

OSAGE BEACH    CLEAR     61  45  55 NE3       30.10R

$$
MOZ051-052-059>065-220100-
...EAST CENTRAL MISSOURI...

CITY           SKY/WX    TMP DP  RH WIND       PRES   REMARKS
ST LOUIS INTL  CLEAR     62  43  49 NE6       30.14R
6HR MIN TEMP:  61; 6HR MAX TEMP:  68;

SPIRIT OF STL  CLEAR     55  45  68 CALM      30.13R
6HR MIN TEMP:  55; 6HR MAX TEMP:  68;

ST CHARLES     CLEAR     57  42  57 NE7       30.14R
6HR MIN TEMP:  57; 6HR MAX TEMP:  67;


$$
MOZ072>076-082>087-097>100-106>115-220100-
...SOUTH CENTRAL AND SOUTHEAST MISSOURI...

CITY           SKY/WX    TMP DP  RH WIND       PRES   REMARKS
CAPE GIRARDEAU CLEAR     58  46  64 N6        30.10R
6HR MIN TEMP:  58; 6HR MAX TEMP:  72;

FARMINGTON     CLEAR     57  43  58 N5        30.13R
6HR MIN TEMP:  57; 6HR MAX TEMP:  70;

POPLAR BLUFF   CLEAR     63  46  54 NE6       30.06R
6HR MIN TEMP:  63; 6HR MAX TEMP:  76;

WEST PLAINS    CLEAR     61  46  57 N3        30.10R
6HR MIN TEMP:  60; 6HR MAX TEMP:  74;


$$



USA.gov is the U.S. government's official web portal to all federal, state and local government web resources and services.